Location: Unspecified
(17.6330°N, 0.0000°E)
Time: 21:01:18
(UTC+00:00)

A-11 Canister half - Pass Details

Date: 18 June 2019
Orbit: 1514 x 1686 km, 47.2° (Epoch: 21 October)

Event Time Altitude Azimuth Distance (km) Brightness Sun altitude
Rises 19:20:44 0° 316° (NW) 4,686 13.2 -10.2°
Reaches altitude 10° 19:23:47 10° 315° (NW) 3,689 12.4 -10.8°
Maximum altitude 19:33:04 85° 229° (SW) 1,519 9.0 -12.8°
Enters shadow 19:40:59 15° 141° (SE) 3,254 10.1 -14.4°
Drops below altitude 10° 19:42:19 10° 141° (SE) 3,677 - -14.7°
Sets 19:45:21 0° 140° (SE) 4,669 - -15.3°
